Location: Newark
(42.7133°N, 87.7910°W)
Time: 18:26:54
(UTC+00:00)

SR - Visible Passes

Search period start: 21 October 2019 00:00
Search period end: 31 October 2019 00:00
Orbit: 574 x 881 km, 66.7° (Epoch: 21 October)

Date Brightness Start Highest point End Pass type
(mag) Time Alt. Az. Time Alt. Az. Time Alt. Az.
21 Oct ? 11:13:58 10° NNW 11:18:57 28° NE 11:23:57 10° ESE visible
22 Oct ? 10:24:52 10° N 10:28:45 18° NE 10:32:40 10° E visible
23 Oct ? 09:36:20 10° N 09:38:21 12° NNE 09:40:22 10° NE visible
23 Oct ? 11:16:25 10° NNW 11:22:03 43° NE 11:27:39 10° ESE visible
24 Oct ? 10:27:06 10° NNW 10:32:02 26° NE 10:36:56 10° E visible
25 Oct ? 09:38:01 10° N 09:41:48 17° NE 09:45:35 10° ENE visible
25 Oct ? 11:19:02 10° NNW 11:24:58 71° ENE 11:30:50 10° SE visible
26 Oct ? 08:49:35 10° N 08:51:22 11° NNE 08:53:09 10° NE visible
26 Oct ? 10:29:32 10° NNW 10:35:08 41° NE 10:40:40 10° ESE visible
27 Oct ? 09:40:14 10° NNW 09:45:04 25° NE 09:49:54 10° E visible
27 Oct ? 11:21:50 10° NW 11:27:44 69° WSW 11:33:31 10° SSE visible
28 Oct ? 08:52:23 13° N 08:54:50 16° NE 08:58:29 10° ENE visible
28 Oct ? 10:32:08 10° NNW 10:38:05 68° ENE 10:43:54 10° SE visible
29 Oct ? 08:04:51 11° NNE 08:04:51 11° NNE 08:05:53 10° NE visible
29 Oct ? 09:44:19 18° N 09:48:12 39° NE 09:53:41 10° ESE visible
29 Oct ? 11:24:52 10° NW 11:30:20 39° WSW 11:35:41 10° S visible
30 Oct ? 00:15:03 10° SSE 00:16:05 14° SE 00:16:05 14° SE visible
30 Oct ? 01:54:55 10° SW 01:55:35 14° SW 01:55:35 14° SW visible
30 Oct ? 08:56:59 23° NNE 08:58:08 24° NE 09:02:53 10° E visible
30 Oct ? 10:36:28 19° NW 10:40:51 73° WSW 10:46:39 10° SSE visible
